| time (UTC) | temp C | wind direction | speed KPH | gust KPH | rain 1hr cm | rain 24hr cm | rain mn cm | humidity % | barometer mb |
| 20260502123034 | 2 | 0 | 0.0 | 0.0 | 0.00 | 0.00 | 0.00 | 71 | 1020.8 |
| 20260502121543 | 2 | 0 | 0.0 | 0.0 | 0.00 | 0.00 | 0.00 | 72 | 1020.8 |
| 20260502114540 | 1 | 0 | 0.0 | 0.0 | 0.00 | 0.00 | 0.00 | 73 | 1020.8 |
| 20260502113046 | 1 | 0 | 0.0 | 0.0 | 0.00 | 0.00 | 0.00 | 74 | 1020.7 |
| 20260502111537 | 1 | 0 | 0.0 | 0.0 | 0.00 | 0.00 | 0.00 | 75 | 1020.7 |
| 20260502110036 | 0 | 0 | 0.0 | 0.0 | 0.00 | 0.00 | 0.00 | 79 | 1020.6 |
| 20260502104545 | 0 | 0 | 0.0 | 0.0 | 0.00 | 0.00 | 0.00 | 82 | 1020.7 |
| 20260502103102 | 0 | 0 | 0.0 | 0.0 | 0.00 | 0.00 | 0.00 | 81 | 1020.7 |
| 20260502101548 | 0 | 0 | 0.0 | 0.0 | 0.00 | 0.00 | 0.00 | 80 | 1020.6 |
| 20260502070046 | 3 | 0 | 0.0 | 0.0 | 0.00 | 0.00 | 0.00 | 62 | 1020.8 |
| 20260502064544 | 3 | 0 | 0.0 | 0.0 | 0.00 | 0.00 | 0.00 | 66 | 1020.8 |
| 20260502063050 | 2 | 0 | 0.0 | 0.0 | 0.00 | 0.00 | 0.00 | 73 | 1020.9 |
| 20260502061542 | 2 | 0 | 0.0 | 1.6 | 0.00 | 0.00 | 0.00 | 74 | 1020.9 |
| 20260502060038 | 2 | 0 | 0.0 | 0.0 | 0.00 | 0.00 | 0.00 | 75 | 1020.9 |
| 20260502054549 | 3 | 0 | 0.0 | 0.0 | 0.00 | 0.00 | 0.00 | 70 | 1020.9 |
| 20260502053048 | 3 | 0 | 0.0 | 0.0 | 0.00 | 0.00 | 0.00 | 69 | 1020.8 |
| 20260502051542 | 3 | 0 | 0.0 | 0.0 | 0.00 | 0.00 | 0.00 | 72 | 1020.8 |
| 20260502050042 | 3 | 0 | 0.0 | 0.0 | 0.00 | 0.00 | 0.00 | 72 | 1020.6 |
| 20260502044536 | 3 | 0 | 0.0 | 0.0 | 0.00 | 0.00 | 0.00 | 71 | 1020.5 |
| 20260502043057 | 4 | 0 | 0.0 | 0.0 | 0.00 | 0.00 | 0.00 | 68 | 1020.3 |
| 20260502041545 | 5 | 0 | 0.0 | 0.0 | 0.00 | 0.00 | 0.00 | 60 | 1020.3 |
| 20260502040050 | 5 | 0 | 0.0 | 0.0 | 0.00 | 0.00 | 0.00 | 55 | 1020.1 |
| 20260502034539 | 6 | 0 | 0.0 | 0.0 | 0.00 | 0.00 | 0.00 | 58 | 1020.2 |
| 20260502033043 | 6 | 0 | 0.0 | 0.0 | 0.00 | 0.00 | 0.00 | 51 | 1020.1 |
| 20260502031544 | 6 | 0 | 0.0 | 0.0 | 0.00 | 0.00 | 0.00 | 53 | 1020.1 |
| 20260502030050 | 6 | 0 | 0.0 | 0.0 | 0.00 | 0.00 | 0.00 | 55 | 1020.1 |
| 20260502024544 | 7 | 0 | 0.0 | 0.0 | 0.00 | 0.00 | 0.00 | 52 | 1019.9 |
| 20260502023040 | 7 | 0 | 0.0 | 0.0 | 0.00 | 0.00 | 0.00 | 47 | 1019.8 |
| 20260502021539 | 8 | 0 | 0.0 | 0.0 | 0.00 | 0.00 | 0.00 | 46 | 1019.7 |
| 20260502020045 | 8 | 0 | 0.0 | 0.0 | 0.00 | 0.00 | 0.00 | 42 | 1019.5 |
| 20260502014536 | 9 | 0 | 0.0 | 0.0 | 0.00 | 0.00 | 0.00 | 41 | 1019.4 |
| 20260502013053 | 10 | 0 | 0.0 | 0.0 | 0.00 | 0.00 | 0.00 | 39 | 1019.2 |
| 20260502011542 | 10 | 0 | 0.0 | 1.6 | 0.00 | 0.00 | 0.00 | 37 | 1019.2 |
| 20260502010047 | 11 | 14 | 0.0 | 1.6 | 0.00 | 0.00 | 0.00 | 35 | 1019.0 |
| 20260502004535 | 12 | 133 | 0.0 | 1.6 | 0.00 | 0.00 | 0.00 | 35 | 1018.9 |
| 20260502003034 | 12 | 70 | 0.0 | 3.2 | 0.00 | 0.00 | 0.00 | 34 | 1018.8 |
| 20260502001543 | 12 | 0 | 1.6 | 4.8 | 0.00 | 0.00 | 0.00 | 33 | 1018.7 |
| 20260502000043 | 12 | 0 | 1.6 | 6.4 | 0.00 | 0.00 | 0.00 | 33 | 1018.7 |
| 20260501234541 | 12 | 18 | 1.6 | 4.8 | 0.00 | 0.00 | 0.00 | 32 | 1018.7 |
| 20260501233051 | 12 | 304 | 1.6 | 4.8 | 0.00 | 0.00 | 0.00 | 33 | 1018.7 |
| 20260501231535 | 13 | 4 | 0.0 | 8.0 | 0.00 | 0.00 | 0.00 | 31 | 1018.7 |
| 20260501230035 | 13 | 39 | 1.6 | 6.4 | 0.00 | 0.00 | 0.00 | 31 | 1018.7 |
| 20260501224549 | 13 | 283 | 1.6 | 4.8 | 0.00 | 0.00 | 0.00 | 30 | 1018.6 |
| 20260501223049 | 13 | 73 | 1.6 | 6.4 | 0.00 | 0.00 | 0.00 | 32 | 1018.7 |
| 20260501221536 | 14 | 10 | 1.6 | 6.4 | 0.00 | 0.00 | 0.00 | 33 | 1018.7 |
| 20260501220036 | 13 | 332 | 3.2 | 9.7 | 0.00 | 0.00 | 0.00 | 32 | 1018.6 |
| 20260501214544 | 13 | 345 | 3.2 | 12.9 | 0.00 | 0.00 | 0.00 | 30 | 1018.7 |
| 20260501213042 | 13 | 39 | 6.4 | 14.5 | 0.00 | 0.00 | 0.00 | 30 | 1018.6 |
| 20260501211552 | 13 | 345 | 1.6 | 6.4 | 0.00 | 0.00 | 0.00 | 34 | 1018.7 |
| 20260501210043 | 13 | 8 | 1.6 | 4.8 | 0.00 | 0.00 | 0.00 | 35 | 1018.9 |
| 20260501204557 | 13 | 34 | 1.6 | 8.0 | 0.00 | 0.00 | 0.00 | 35 | 1019.0 |
| 20260501203055 | 12 | 24 | 1.6 | 6.4 | 0.00 | 0.00 | 0.00 | 37 | 1019.2 |
| 20260501201546 | 13 | 340 | 1.6 | 4.8 | 0.00 | 0.00 | 0.00 | 35 | 1019.2 |
| 20260501200043 | 12 | 77 | 1.6 | 6.4 | 0.00 | 0.00 | 0.00 | 37 | 1019.2 |
| 20260501194540 | 12 | 286 | 3.2 | 8.0 | 0.00 | 0.00 | 0.00 | 39 | 1019.3 |
| 20260501193047 | 11 | 89 | 3.2 | 8.0 | 0.00 | 0.00 | 0.00 | 38 | 1019.4 |
| 20260501191536 | 12 | 17 | 1.6 | 9.7 | 0.00 | 0.00 | 0.00 | 37 | 1019.4 |
| 20260501190045 | 11 | 33 | 3.2 | 12.9 | 0.00 | 0.00 | 0.00 | 37 | 1019.3 |
| 20260501184545 | 11 | 227 | 1.6 | 6.4 | 0.00 | 0.00 | 0.00 | 44 | 1019.4 |
| 20260501183041 | 12 | 9 | 3.2 | 8.0 | 0.00 | 0.00 | 0.00 | 38 | 1019.3 |
| 20260501181546 | 11 | 288 | 3.2 | 6.4 | 0.00 | 0.00 | 0.00 | 40 | 1019.5 |
| 20260501180045 | 11 | 281 | 3.2 | 9.7 | 0.00 | 0.00 | 0.00 | 40 | 1019.7 |
| 20260501174542 | 11 | 348 | 3.2 | 6.4 | 0.00 | 0.00 | 0.00 | 43 | 1019.8 |
| 20260501173042 | 11 | 316 | 1.6 | 6.4 | 0.00 | 0.00 | 0.00 | 38 | 1019.8 |
| 20260501171556 | 10 | 74 | 1.6 | 6.4 | 0.00 | 0.00 | 0.00 | 39 | 1019.7 |
| 20260501170041 | 11 | 282 | 3.2 | 6.4 | 0.00 | 0.00 | 0.00 | 43 | 1019.7 |
| 20260501164548 | 10 | 29 | 1.6 | 6.4 | 0.00 | 0.00 | 0.00 | 46 | 1019.8 |
| 20260501163045 | 10 | 8 | 1.6 | 8.0 | 0.00 | 0.00 | 0.00 | 47 | 1019.6 |
| 20260501161546 | 9 | 339 | 1.6 | 6.4 | 0.00 | 0.00 | 0.00 | 51 | 1019.7 |
| 20260501160048 | 9 | 300 | 3.2 | 8.0 | 0.00 | 0.00 | 0.00 | 49 | 1019.6 |
| 20260501154540 | 10 | 335 | 3.2 | 8.0 | 0.00 | 0.00 | 0.00 | 52 | 1019.4 |
| 20260501153042 | 9 | 330 | 1.6 | 9.7 | 0.00 | 0.00 | 0.00 | 53 | 1019.4 |
| 20260501151606 | 8 | 339 | 1.6 | 9.7 | 0.00 | 0.00 | 0.00 | 57 | 1019.4 |
| 20260501150047 | 7 | 347 | 1.6 | 6.4 | 0.00 | 0.00 | 0.00 | 61 | 1019.4 |
| 20260501144542 | 8 | 307 | 1.6 | 4.8 | 0.00 | 0.00 | 0.00 | 61 | 1019.3 |
| 20260501143041 | 7 | 312 | 0.0 | 4.8 | 0.00 | 0.00 | 0.00 | 67 | 1019.2 |
| 20260501141542 | 6 | 159 | 0.0 | 4.8 | 0.00 | 0.00 | 0.00 | 74 | 1019.2 |
| 20260501140038 | 6 | 345 | 0.0 | 3.2 | 0.00 | 0.00 | 0.00 | 76 | 1019.1 |